Teterboro, NJ

5:12 PM EST on November 11, 2019 (GMT -0500)
Teterboro

Weather History for KTEB - October, 2019

Change the Weather History Date:

Wednesday, October 23, 2019

  Actual Average Record
Temperature  
Mean Temperature 60 °F -  
Max Temperature 68 °F 60 °F 87 °F (2017)
Min Temperature 50 °F 41 °F 28 °F (1997)
Degree Days  
Heating Degree Days 6    
Growing Degree Days 10 (Base 50)    
Moisture  
Dew Point 45 °F    
Average Humidity 61    
Maximum Humidity 93    
Minimum Humidity 28    
Precipitation  
Precipitation 0.09 in - - ()
Sea Level Pressure  
Sea Level Pressure 29.91 in    
Wind  
Wind Speed 7 mph ()    
Max Wind Speed 17 mph    
Max Gust Speed 25 mph    
Visibility 8.7 miles    
Events Rain    
Averages and records for this station are not official NWS values.
T = Trace of Precipitation, MM = Missing Value Source: Averaged Metar Reports

Daily Weather History Graph

Daily Weather History Graph

Search for Another Location

Airport or City:

Astronomy

Oct. 23, 2019 Rise Set
Actual Time 7:16 AM EDT 6:04 PM EDT
Civil Twilight 6:48 AM EDT 6:32 PM EDT
Nautical Twilight 6:16 AM EDT 7:04 PM EDT
Astronomical Twilight 5:44 AM EDT 7:36 PM EDT
Moon 1:28 AM EDT (10/23) 3:55 PM EDT (10/23)
Length of Visible Light 11h 44m
Length of Day
10h 48m
Waning Crescent, 27% of the Moon is Illuminated
Oct 23
Waning Crescent
Oct 27
New
Nov 4
First Quarter
Nov 12
Full
Nov 19
Last Quarter

Hourly Weather History & Observations

Time (EDT) Temp. Dew Point Humidity Pressure Visibility Wind Dir Wind Speed Gust Speed Precip Events Conditions
12:02 AM 64.0 °F 62.1 °F 93% 29.76 in 2.5 mi SSE 10.4 mph - 0.01 in Rain Light Rain
12:51 AM 64.0 °F 62.1 °F 93% 29.75 in 2.5 mi South 9.2 mph - 0.06 in Rain Light Rain
12:58 AM 66.0 °F 62.1 °F 87% 29.75 in 5.0 mi South 6.9 mph - 0.00 in Rain Light Rain
1:51 AM 61.0 °F 57.9 °F 90% 29.77 in 5.0 mi NW 9.2 mph - 0.03 in Rain Light Rain
2:12 AM 61.0 °F 57.9 °F 90% 29.76 in 5.0 mi NNW 10.4 mph - 0.00 in Rain Light Rain
2:51 AM 61.0 °F 57.0 °F 87% 29.75 in 5.0 mi NNE 4.6 mph - 0.00 in Rain Light Rain
3:51 AM 60.1 °F 55.9 °F 86% 29.76 in 10.0 mi Calm Calm - 0.00 in Rain Light Rain
4:51 AM 57.0 °F 53.1 °F 87% 29.78 in 10.0 mi WNW 4.6 mph - 0.00 in Rain Light Rain
5:51 AM 57.9 °F 53.1 °F 84% 29.80 in 10.0 mi WNW 6.9 mph - 0.00 in   Clear
6:51 AM 57.0 °F 51.1 °F 81% 29.83 in 10.0 mi NW 5.8 mph - N/A   Clear
7:51 AM 57.0 °F 50.0 °F 77% 29.86 in 10.0 mi NW 4.6 mph - N/A   Clear
8:51 AM 59.0 °F 48.9 °F 69% 29.89 in 10.0 mi NW 6.9 mph - N/A   Clear
9:51 AM 61.0 °F 46.9 °F 60% 29.92 in 10.0 mi NW 12.7 mph - N/A   Clear
10:51 AM 64.0 °F 45.0 °F 50% 29.92 in 10.0 mi NW 9.2 mph - N/A   Clear
11:51 AM 64.9 °F 41.0 °F 42% 29.93 in 10.0 mi NW 11.5 mph - N/A   Clear
12:51 PM 66.0 °F 39.0 °F 37% 29.94 in 10.0 mi NW 11.5 mph 25.3 mph N/A   Partly Cloudy
1:51 PM 66.0 °F 36.0 °F 33% 29.94 in 10.0 mi WNW 9.2 mph 19.6 mph N/A   Clear
2:51 PM 66.9 °F 33.1 °F 28% 29.94 in 10.0 mi West 17.3 mph 21.9 mph N/A   Clear
3:51 PM 66.9 °F 33.1 °F 28% 29.95 in 10.0 mi West 12.7 mph - N/A   Clear
4:51 PM 64.9 °F 32.0 °F 29% 29.98 in 10.0 mi West 13.8 mph - N/A   Clear
5:51 PM 62.1 °F 33.1 °F 34% 30.01 in 10.0 mi West 11.5 mph - N/A   Clear
6:51 PM 60.1 °F 34.0 °F 38% 30.04 in 10.0 mi West 5.8 mph - N/A   Clear
7:51 PM 57.9 °F 36.0 °F 44% 30.09 in 10.0 mi West 8.1 mph - N/A   Clear
8:51 PM 57.9 °F 34.0 °F 41% 30.12 in 10.0 mi West 6.9 mph - N/A   Clear
9:51 PM 57.0 °F 33.1 °F 40% 30.14 in 10.0 mi West 4.6 mph - N/A   Clear
10:51 PM 53.1 °F 36.0 °F 52% 30.15 in 10.0 mi SW 4.6 mph - N/A   Clear
11:51 PM 50.0 °F 37.0 °F 61% 30.16 in 10.0 mi Calm Calm - N/A   Clear